IU1FIL-23 Weather Reports


Display with metric or nautical units.
time (UTC)temp
F
wind
direction
speed
MPH
gust
MPH
rain 1hr
in
rain 24hr
in
rain mn
in
humidity
%
barometer
mb
20260506194150 49 0.0 0.0 0.00 0.00 0.00 10 1011.6
20260506193145 49 0.0 0.0 0.00 0.00 0.00 10 1011.7
20260506192140 49 0.0 0.0 0.00 0.00 0.00 10 1011.3
20260506191136 49 0.0 0.0 0.00 0.00 0.00 10 1011.3
20260506190131 50 0.0 0.0 0.00 0.00 0.00 10 1011.1
20260506185127 50 0.0 0.0 0.00 0.00 0.00 98 1010.9
20260506184122 51 0.0 0.0 0.00 0.00 0.00 93 1010.7
20260506183117 51 0.0 0.0 0.00 0.00 0.00 91 1010.7
20260506182113 51 0.0 0.0 0.00 0.00 0.00 93 1010.4
20260506181108 52 0.0 0.0 0.00 0.00 0.00 92 1010.3
20260506180104 52 0.0 0.0 0.00 0.00 0.00 96 1010.5
20260506175059 52 0.0 0.0 0.00 0.00 0.00 93 1010.0
20260506174541 52 0.0 0.0 0.00 0.00 0.00 93 1010.0
20260506174054 52 0.0 0.0 0.00 0.00 0.00 93 1010.0
20260506173050 52 0.0 0.0 0.00 0.00 0.00 90 1010.1
20260506172045 53 0.0 0.0 0.00 0.00 0.00 92 1010.1
20260506171041 52 0.0 0.0 0.00 0.00 0.00 92 1010.5
20260506170036 53 0.0 0.0 0.00 0.00 0.00 92 1010.1
20260506165031 53 0.0 0.0 0.00 0.00 0.00 88 1010.2
20260506164027 55 0.0 0.0 0.00 0.00 0.00 85 1010.3
20260506163015 55 0.0 0.0 0.00 0.00 0.00 84 1010.0
20260506162011 54 0.0 0.0 0.00 0.00 0.00 90 1010.4
20260506161006 54 0.0 0.0 0.00 0.00 0.00 87 1010.2
20260506160038 54 0.0 0.0 0.00 0.00 0.00 93 1010.5
20260506160002 54 0.0 0.0 0.00 0.00 0.00 93 1010.5
20260506154957 53 0.0 0.0 0.00 0.00 0.00 98 1010.2
20260506153952 55 0.0 0.0 0.00 0.00 0.00 91 1010.2
20260506152935 56 0.0 0.0 0.00 0.00 0.00 85 1010.0
20260506151931 56 0.0 0.0 0.00 0.00 0.00 86 1010.0
20260506150926 55 0.0 0.0 0.00 0.00 0.00 91 1010.2
20260506145921 55 0.0 0.0 0.00 0.00 0.00 10 1010.4
20260506144912 57 0.0 0.0 0.00 0.00 0.00 94 1010.5
20260506143907 54 0.0 0.0 0.00 0.00 0.00 10 1010.6
20260506142903 53 0.0 0.0 0.00 0.00 0.00 10 1010.4
20260506141858 54 0.0 0.0 0.00 0.00 0.00 10 1010.4
20260506140853 53 0.0 0.0 0.00 0.00 0.00 10 1010.3
20260506135849 54 0.0 0.0 0.00 0.00 0.00 10 1010.4
20260506134844 56 0.0 0.0 0.00 0.00 0.00 93 1010.0
20260506133840 55 0.0 0.0 0.00 0.00 0.00 93 1010.4
20260506132835 58 0.0 0.0 0.00 0.00 0.00 88 1010.7
20260506131830 57 0.0 0.0 0.00 0.00 0.00 81 1010.6
20260506130826 57 0.0 0.0 0.00 0.00 0.00 90 1010.5
20260506125821 58 0.0 0.0 0.00 0.00 0.00 86 1011.0
20260506124816 56 0.0 0.0 0.00 0.00 0.00 10 1010.4
20260506123812 55 0.0 0.0 0.00 0.00 0.00 10 1010.6
20260506122807 54 0.0 0.0 0.00 0.00 0.00 10 1010.5
20260506121917 54 0.0 0.0 0.00 0.00 0.00 10 1010.6
20260506121803 54 0.0 0.0 0.00 0.00 0.00 10 1010.6
20260506120758 56 0.0 0.0 0.00 0.00 0.00 10 1010.0
20260506115753 54 0.0 0.0 0.00 0.00 0.00 10 1011.1
20260506114749 54 0.0 0.0 0.00 0.00 0.00 10 1010.4
20260506113744 53 0.0 0.0 0.00 0.00 0.00 10 1010.4
20260506112740 53 0.0 0.0 0.00 0.00 0.00 10 1010.5
20260506111735 54 0.0 0.0 0.00 0.00 0.00 10 1010.4
20260506110730 54 0.0 0.0 0.00 0.00 0.00 98 1010.5
20260506105658 55 0.0 0.0 0.00 0.00 0.00 96 1010.7
20260506104653 55 0.0 0.0 0.00 0.00 0.00 96 1011.1
20260506103649 54 0.0 0.0 0.00 0.00 0.00 98 1010.9
20260506102642 53 0.0 0.0 0.00 0.00 0.00 10 1010.7
20260506100629 54 0.0 0.0 0.00 0.00 0.00 10 1010.7
20260506095625 57 0.0 0.0 0.00 0.00 0.00 87 1010.5
20260506094653 54 0.0 0.0 0.00 0.00 0.00 96 1010.8
20260506094620 54 0.0 0.0 0.00 0.00 0.00 96 1010.8
20260506093616 55 0.0 0.0 0.00 0.00 0.00 96 1010.7
20260506092610 56 0.0 0.0 0.00 0.00 0.00 85 1010.7
20260506091605 57 0.0 0.0 0.00 0.00 0.00 93 1010.5
20260506090601 55 0.0 0.0 0.00 0.00 0.00 10 1010.8
20260506085556 54 0.0 0.0 0.00 0.00 0.00 10 1010.8
20260506084551 54 0.0 0.0 0.00 0.00 0.00 10 1010.5
20260506083547 53 0.0 0.0 0.00 0.00 0.00 10 1010.6
20260506082542 53 0.0 0.0 0.00 0.00 0.00 10 1010.5
20260506081537 52 0.0 0.0 0.00 0.00 0.00 10 1010.4
20260506080532 52 0.0 0.0 0.00 0.00 0.00 10 1010.6
20260506073518 51 0.0 0.0 0.00 0.00 0.00 10 1010.3
20260506072513 51 0.0 0.0 0.00 0.00 0.00 10 1010.3
20260506071508 50 0.0 0.0 0.00 0.00 0.00 10 1010.3
20260506070540 51 0.0 0.0 0.00 0.00 0.00 10 1010.2
20260506070503 51 0.0 0.0 0.00 0.00 0.00 10 1010.2
20260506062430 51 0.0 0.0 0.00 0.00 0.00 10 1009.9
20260506061426 50 0.0 0.0 0.00 0.00 0.00 10 1009.9
20260506060421 53 0.0 0.0 0.00 0.00 0.00 10 1009.9
20260506051358 46 0.0 0.0 0.00 0.00 0.00 10 1009.9
20260506050354 45 0.0 0.0 0.00 0.00 0.00 10 1010.0
20260506044344 45 0.0 0.0 0.00 0.00 0.00 10 1010.1
20260506043339 45 0.0 0.0 0.00 0.00 0.00 10 1010.1
20260506042334 45 0.0 0.0 0.00 0.00 0.00 10 1010.1
20260506041329 46 0.0 0.0 0.00 0.00 0.00 10 1010.6
20260506040323 46 0.0 0.0 0.00 0.00 0.00 10 1010.6
20260506035318 46 0.0 0.0 0.00 0.00 0.00 10 1010.8
20260506034303 45 0.0 0.0 0.00 0.00 0.00 10 1010.3
20260506033258 45 0.0 0.0 0.00 0.00 0.00 10 1010.1
20260506032253 45 0.0 0.0 0.00 0.00 0.00 10 1010.4
20260506031248 45 0.0 0.0 0.00 0.00 0.00 10 1010.3
20260506030242 46 0.0 0.0 0.00 0.00 0.00 10 1010.4
20260506025414 46 0.0 0.0 0.00 0.00 0.00 10 1010.7
20260506025237 46 0.0 0.0 0.00 0.00 0.00 10 1010.7
20260506024314 45 0.0 0.0 0.00 0.00 0.00 10 1010.8
20260506024227 45 0.0 0.0 0.00 0.00 0.00 10 1010.8
20260506023222 45 0.0 0.0 0.00 0.00 0.00 10 1010.7
20260506022217 45 0.0 0.0 0.00 0.00 0.00 10 1011.0
20260506021212 45 0.0 0.0 0.00 0.00 0.00 10 1011.0
20260506020206 46 0.0 0.0 0.00 0.00 0.00 10 1011.2
20260506015202 46 0.0 0.0 0.00 0.00 0.00 10 1011.2
20260506014157 45 0.0 0.0 0.00 0.00 0.00 10 1011.1
20260506013153 45 0.0 0.0 0.00 0.00 0.00 10 1011.1
20260506012148 45 0.0 0.0 0.00 0.00 0.00 10 1011.1
20260506011143 45 0.0 0.0 0.00 0.00 0.00 10 1011.2
20260506010139 45 0.0 0.0 0.00 0.00 0.00 10 1011.3
20260506005134 46 0.0 0.0 0.00 0.00 0.00 10 1011.6
20260506004130 46 0.0 0.0 0.00 0.00 0.00 10 1011.8
20260506003125 46 0.0 0.0 0.00 0.00 0.00 10 1011.7
20260506002120 46 0.0 0.0 0.00 0.00 0.00 10 1011.8
20260506001116 47 0.0 0.0 0.00 0.00 0.00 10 1012.0
20260506000111 47 0.0 0.0 0.00 0.00 0.00 10 1012.5
20260505235107 47 0.0 0.0 0.00 0.00 0.00 10 1012.7
20260505234102 47 0.0 0.0 0.00 0.00 0.00 10 1013.2
20260505233057 47 0.0 0.0 0.00 0.00 0.00 10 1013.3
20260505232053 47 0.0 0.0 0.00 0.00 0.00 10 1013.0
20260505231048 47 0.0 0.0 0.00 0.00 0.00 10 1013.1
20260505230044 48 0.0 0.0 0.00 0.00 0.00 10 1013.1
20260505225039 47 0.0 0.0 0.00 0.00 0.00 10 1013.0
20260505224034 47 0.0 0.0 0.00 0.00 0.00 10 1013.1
20260505223030 47 0.0 0.0 0.00 0.00 0.00 10 1013.4
20260505222025 47 0.0 0.0 0.00 0.00 0.00 10 1013.5
20260505221020 47 0.0 0.0 0.00 0.00 0.00 10 1013.7
20260505220016 47 0.0 0.0 0.00 0.00 0.00 10 1013.9
20260505215011 47 0.0 0.0 0.00 0.00 0.00 10 1014.4
20260505214006 47 0.0 0.0 0.00 0.00 0.00 10 1014.4
20260505213002 47 0.0 0.0 0.00 0.00 0.00 10 1014.4
20260505211957 48 0.0 0.0 0.00 0.00 0.00 10 1014.3
20260505210953 48 0.0 0.0 0.00 0.00 0.00 10 1014.5
20260505205948 48 0.0 0.0 0.00 0.00 0.00 10 1014.4
20260505204943 47 0.0 0.0 0.00 0.00 0.00 10 1014.5
20260505203939 47 0.0 0.0 0.00 0.00 0.00 10 1014.6
20260505202934 47 0.0 0.0 0.00 0.00 0.00 10 1014.5
20260505201930 47 0.0 0.0 0.00 0.00 0.00 10 1014.5
20260505200925 47 0.0 0.0 0.00 0.00 0.00 10 1014.4
20260505195920 47 0.0 0.0 0.00 0.00 0.00 10 1014.3
20260505194916 47 0.0 0.0 0.00 0.00 0.00 10 1014.3